Zurück zum Katalog

METEOR 2-11 DEB

AktivPO
NORAD 40708·DEBRIS·🇷🇺 Russia

Gestartet Jul 5, 1984 von Plesetsk Cosmodrome

Loading…

Nächste Überflüge (nächste 24 Stunden)

TLE

AktuellSource: Space-Track

Epoche: Sep 14, 2026, 10:43 UTC

1 40708U 84072K   26257.44653302 -.00000221  00000-0 -16473-3 0  9990
2 40708  82.5108 292.2011 0026645  54.0317 306.3316 13.98542365586518

Verfolge METEOR 2-11 DEB in Echtzeit mit AllMySat

Download on the App Store